Regional Weather Roundup
Issued by NWS

Home | Current Version | Previous Version | Text Only | Print | Product List | Glossary On
Versions: 1 2 3 4 5 6 7 8 9 10 11 12 13 14 15 16 17 18 19 20 21 22 23 24 25 26 27 28 29 30 31 32 33 34 35 36 37 38 39 40 41 42 43 44 45 46 47 48 49 50
000
ASUS43 KDTX 061710
RWRMI
MICHIGAN HOURLY REGIONAL WEATHER ROUNDUP
NATIONAL WEATHER SERVICE DETROIT/PONTIAC MI
ISSUED BY NATIONAL WEATHER SERVICE GRAND RAPIDS MI
100 PM EDT WED MAY 06 2015

NOTE: "FAIR" INDICATES FEW OR NO CLOUDS BELOW 12,000 FEET WITH NO
SIGNIFICANT WEATHER AND/OR OBSTRUCTION TO VISIBILITY.

MIZ047>049-052>055-059>063-066>070-074>076-081>083-061800-
SOUTHEAST LOWER MICHIGAN

CITY           SKY/WX    TMP DP  RH WIND       PRES   REMARKS
ADRIAN         CLOUDY    58  55  90 E6        30.25F FOG
ALMA           CLOUDY    64  55  73 SE5       30.26S
ANN ARBOR      CLOUDY    62  56  80 E5        30.25S HAZE
BAD AXE        PTSUNNY   64  47  54 S5        30.27F
DETROIT CITY   PTSUNNY   61  55  81 SE5       30.26S
DETROIT        CLOUDY    62  56  80 VRB5      30.25F
FLINT          CLOUDY    68  55  63 NE5       30.25S
GROSSE ILE     CLOUDY    57  54  88 S6        30.24F FOG
HILLSDALE      CLOUDY    62  61  94 SE5       30.24S FOG
HOWELL         MOSUNNY   66  57  73 CALM      30.24F

CITY           SKY/WX    TMP DP  RH WIND       PRES   REMARKS
JACKSON        CLOUDY    60  55  83 VRB3      30.24F HAZE
LANSING        MOSUNNY   63  56  78 SE7       30.24F HAZE
MASON          PTSUNNY   61  57  87 S3        30.24F FOG
MONROE         CLOUDY    57  55  94 E5        30.24F FOG
MT. CLEMENS    PTSUNNY   62  55  77 E3        30.24S HAZE
PONTIAC        PTSUNNY   65  56  72 SE7       30.25S
PORT HOPE        N/A     48  43  82 E5        30.27F
PORT HURON     CLOUDY    61  54  77 E6        30.26F
TRI CITIES     PTSUNNY   66  52  60 SE8       30.26F
YPSILANTI      CLOUDY    67  57  70 S5        30.25F
$$
MIZ043>046-050>051-056>058-064>065-071>073-077>080-061800-
SOUTHWEST LOWER MICHIGAN

CITY           SKY/WX    TMP DP  RH WIND       PRES   REMARKS
BATTLE CREEK   CLOUDY    63  57  81 E6        30.23F
BENTON HARBOR  SUNNY     71  61  70 S8        30.18F
BIG RAPIDS     MOSUNNY   63  53  71 SE7       30.23F
COLDWATER      CLOUDY    62  59  91 SE3       30.23S FOG
HOLLAND        PTSUNNY   66  59  78 E8        30.21F
GRAND RAPIDS   CLOUDY    62  55  77 E8        30.23F HAZE
KALAMAZOO      PTSUNNY   64  57  78 VRB6      30.22F HAZE
MARSHALL       CLOUDY    63  58  84 E7        30.23F
MOUNT PLEASANT CLOUDY    64  51  63 SE5       30.24F
MUSKEGON       PTSUNNY   69  56  62 SE12      30.20F
STURGIS        MOSUNNY   66  61  82 CALM      30.21F HAZE
$$
MIZ016>042-061800-
NORTHERN LOWER MICHIGAN

CITY           SKY/WX    TMP DP  RH WIND       PRES   REMARKS
ALPENA         SUNNY     63  44  50 E12       30.28F
BEAVER ISLAND  MOSUNNY   64  36  35 NE8       30.25F
BELLAIRE       CLOUDY    69  34  28 SE7       30.22F
CADILLAC       CLOUDY    62  52  70 SE5       30.23F
CHARLEVOIX     PTSUNNY   56  39  53 N7        30.27F
GAYLORD        MOSUNNY   68  25  19 SE9       30.25S
HOUGHTON LAKE  CLOUDY    64  45  49 SE9       30.26F
MANISTEE       PTSUNNY   64  52  63 SE3       30.22F
OSCODA         MOSUNNY   58  47  67 E7        30.28S
PELLSTON       SUNNY     71  24  17 MISG      30.24F
TRAVERSE CITY  CLOUDY    60  44  55 CALM      30.22F
LUDINGTON      PTSUNNY   69  57  65 CALM      30.21F
$$
MIZ007>008-015-061800-
EASTERN UPPER MICHIGAN

CITY           SKY/WX    TMP DP  RH WIND       PRES   REMARKS
KINROSS        SUNNY     66  34  30 SE16      30.26F
MACKINAC ISLAN SUNNY     52  40  61 E12G20    30.27S
NEWBERRY       SUNNY     67  24  19 S7G16     30.23F
S. S. MARIE    SUNNY     67  35  30 SE13G20   30.26F
$$
MIZ004>006-011>014-085-061800-
CENTRAL UPPER MICHIGAN

CITY           SKY/WX    TMP DP  RH WIND       PRES   REMARKS
MANISTIQUE     MOSUNNY   63  32  30 SE7       30.24F
ESCANABA       MOSUNNY   57  36  44 S8        30.23S
MENOMINEE      CLOUDY    55  39  54 SE6       30.22F
$$
MIZ001>003-009>011-084-061800-
WESTERN UPPER MICHIGAN

CITY           SKY/WX    TMP DP  RH WIND       PRES   REMARKS
IRON MOUNTAIN  LGT RAIN  62  44  51 S8        30.19F
HOUGHTON       SUNNY     66  29  24 SE9       30.16F
COPPER HARBOR    N/A     66  27  23 S8        30.17F
IRONWOOD       CLOUDY    57  52  82 SE10      30.11F
$$

ABBREVIATIONS USED IN REMARKS
   TC - TEMPERATURE IN CELSIUS
  WCI - WIND CHILL INDEX
   HX - HEAT INDEX
  VSB - VISIBILITY




USA.gov is the U.S. government's official web portal to all federal, state and local government web resources and services.